This is the latest recevied weather packets stored in our database for station/object W7TRD. If no packets are shown the sender has not sent any weather packets the latest 10 day(s).
| Time | Temp. | Humidity | Pressure | Rain* | Wind** | Luminosity | Snow |
|---|---|---|---|---|---|---|---|
| 1788455111 | 12.78° C | 97% | 1011.6 hPa | 0 mm | - | 104 W/m² | - |
| 1788454807 | 12.78° C | 97% | 1011.6 hPa | 0 mm | - | 73 W/m² | - |
| 1788454504 | 12.78° C | 97% | 1011.4 hPa | 1.27 mm | - | 115 W/m² | - |
| 1788454200 | 12.78° C | 96% | 1011.6 hPa | 3.05 mm | - | 74 W/m² | - |
| 1788453895 | 12.78° C | 96% | 1011.6 hPa | 3.05 mm | - | 60 W/m² | - |
| 1788453595 | 12.78° C | 96% | 1011.6 hPa | 1.27 mm | - | 23 W/m² | - |
| 1788453290 | 12.78° C | 96% | 1011.2 hPa | 0 mm | - | 59 W/m² | - |
| 1788452987 | 12.78° C | 96% | 1011.4 hPa | 1.78 mm | - | 78 W/m² | - |
| 1788452683 | 12.78° C | 96% | 1011.7 hPa | 1.78 mm | - | 63 W/m² | - |
| 1788452379 | 12.78° C | 96% | 1011.8 hPa | 0 mm | - | 58 W/m² | - |
| 1788452074 | 12.78° C | 96% | 1011.6 hPa | 0 mm | - | 76 W/m² | - |
| 1788451770 | 12.78° C | 96% | 1011.8 hPa | 0 mm | - | 76 W/m² | - |
| 1788451468 | 12.78° C | 96% | 1011.6 hPa | 0 mm | - | 85 W/m² | - |
| 1788451167 | 12.78° C | 96% | 1011.3 hPa | 0 mm | - | 84 W/m² | - |
| 1788450862 | 12.78° C | 95% | 1011.5 hPa | 1.27 mm | - | 72 W/m² | - |
| 1788450558 | 12.78° C | 95% | 1011.4 hPa | 1.27 mm | - | 58 W/m² | - |
| 1788450254 | 12.78° C | 95% | 1011.4 hPa | 0 mm | - | 45 W/m² | - |
| 1788449955 | 12.78° C | 95% | 1011.5 hPa | 0 mm | - | 41 W/m² | - |
| 1788449650 | 12.78° C | 95% | 1011.4 hPa | 0 mm | - | 39 W/m² | - |
| 1788449346 | 12.78° C | 95% | 1011.2 hPa | 1.78 mm | - | 59 W/m² | - |
| 1788449042 | 12.78° C | 94% | 1011.1 hPa | 1.78 mm | - | 52 W/m² | - |
| 1788448737 | 12.78° C | 95% | 1011.2 hPa | 0 mm | - | 24 W/m² | - |
| 1788448432 | 12.78° C | 95% | 1011.2 hPa | 0 mm | - | 24 W/m² | - |
| 1788448133 | 12.78° C | 94% | 1011 hPa | 0 mm | - | 31 W/m² | - |
| 1788447833 | 12.78° C | 94% | 1011.2 hPa | 0 mm | - | 54 W/m² | - |
* Rain latest hour (hover to see other rain measurements)
** Current wind speed in m/s (hover to see current wind gust speed)